Location: Coffee Creek Observatory
(38.8077°N, 94.7179°W)
Time: 13:10:57
(UTC-05:00)

Amateur Radio Satellites - All Passes

Search period start: 01 September 2015 12:40
Search period end: 02 September 2015 12:40
Location: Coffee Creek Observatory, 38.8077°N, 94.7179°W

Satellite Date Start Highest point End Downlink Frequencies (MHz)
Time Altitude Azimuth
ESTCUBE 1 01 Sep 12:41:31 12:46:03 81° 103° (ESE) 12:50:33 437.505/2401.250
SPROUT 01 Sep 12:45:13 12:48:29 21° 93° (E) 12:51:50 437.525
PCSat 01 Sep 12:50:31 12:55:06 28° 251° (WSW) 12:59:33 145.827
CUBEBUG 1 01 Sep 12:51:17 12:55:44 85° 102° (ESE) 13:00:10 437.445
AISAT 01 Sep 12:52:42 12:57:06 55° 286° (WNW) 13:01:29 437.250
Oscar 19 01 Sep 12:58:58 13:02:57 24° 67° (ENE) 13:07:05 437.125/150
GONETS M04 01 Sep 13:16:32 13:23:13 25° 66° (ENE) 13:30:14
VELOX 1 01 Sep 13:21:10 13:25:02 29° 290° (WNW) 13:28:50 145.980
BUGSAT 1 01 Sep 13:24:19 13:25:54 12° 271° (W) 13:27:17 437.445
Gurwin Techsat 1B 01 Sep 13:45:22 13:49:09 21° 66° (ENE) 13:53:05 435.225
TISAT 1 01 Sep 13:45:59 13:50:13 58° 100° (E) 13:54:25 437.305
CUSAT 1 01 Sep 13:54:30 13:57:25 12° 278° (W) 13:59:39 437.405
ITAMSAT 1 01 Sep 13:59:23 14:03:16 23° 66° (ENE) 14:07:16 435.822/435.867
JUGNU 01 Sep 14:06:58 14:08:08 11° 175° (S) 14:09:20 437.505
SPROUT 01 Sep 14:20:45 14:24:37 31° 289° (WNW) 14:28:24 437.525
ITUPSAT 1 01 Sep 14:21:33 14:25:09 22° 93° (E) 14:28:53 437.325
ISS 01 Sep 14:31:34 14:33:50 17° 23° (NNE) 14:36:07 145.825
Oscar 19 01 Sep 14:37:15 14:42:05 40° 262° (W) 14:46:57 437.125/150
RS-15 01 Sep 14:39:09 14:43:59 15° 100° (E) 14:49:51 29.354- 29.394
JAS-2 01 Sep 14:47:27 14:54:38 46° 69° (ENE) 15:02:03 435.910
BEESAT 01 Sep 14:53:35 14:58:12 48° 99° (E) 15:02:48 436.000
GONETS M04 01 Sep 15:12:12 15:20:58 70° 266° (W) 15:29:42
AO-7 01 Sep 15:12:44 15:19:57 35° 61° (ENE) 15:27:21 29.400- 29.500
SWISSCUBE 01 Sep 15:19:33 15:24:19 81° 286° (WNW) 15:29:05 437.505
BEESAT 3 01 Sep 15:23:14 15:27:17 79° 121° (ESE) 15:31:22 437.485
Gurwin Techsat 1B 01 Sep 15:23:41 15:28:49 49° 261° (W) 15:33:57 435.225
TISAT 1 01 Sep 15:23:41 15:25:32 12° 295° (WNW) 15:27:10 437.305
Cosmos 2499 01 Sep 15:33:58 15:42:13 48° 75° (ENE) 15:49:58 435.465 / 435.565
STARS 01 Sep 15:34:54 15:36:08 11° 89° (E) 15:37:39 437.465
BEESAT 2 01 Sep 15:36:23 15:40:28 82° 120° (ESE) 15:44:36 435.950
ITAMSAT 1 01 Sep 15:37:37 15:42:31 42° 261° (W) 15:47:25 435.822/435.867
KKS-1 01 Sep 15:53:07 15:57:09 32° 97° (E) 16:01:12 437.445
JUGNU 01 Sep 15:54:54 15:56:15 11° 185° (S) 15:57:34 437.505
ITUPSAT 1 01 Sep 15:58:48 16:03:10 36° 289° (WNW) 16:07:28 437.325
HORYU 2 01 Sep 16:01:23 16:05:35 41° 72° (ENE) 16:09:50 437.375
ISS 01 Sep 16:07:19 16:10:34 76° 222° (SW) 16:13:48 145.825
AIST 2 01 Sep 16:17:57 16:21:57 42° 116° (ESE) 16:25:59 435.215
BEESAT 01 Sep 16:32:32 16:35:41 17° 294° (WNW) 16:38:41 436.000
JAS-2 01 Sep 16:32:41 16:39:43 38° 266° (W) 16:46:52 435.910
RS-15 01 Sep 16:43:51 16:54:41 76° 117° (ESE) 17:05:59 29.354- 29.394
BEESAT 3 01 Sep 17:04:07 17:05:47 12° 318° (NW) 17:07:18 437.485
AO-7 01 Sep 17:04:25 17:12:31 52° 259° (W) 17:20:35 29.400- 29.500
SRMSAT 01 Sep 17:05:48 17:07:36 11° 181° (S) 17:09:24 437.500
STARS 01 Sep 17:08:38 17:13:03 61° 286° (WNW) 17:17:25 437.465
GONETS M04 01 Sep 17:13:51 17:16:25 11° 283° (WNW) 17:18:12
BEESAT 2 01 Sep 17:17:28 17:19:06 12° 319° (NW) 17:20:35 435.950
Cubesat XI-IV 01 Sep 17:25:08 17:27:48 14° 63° (ENE) 17:30:43 437.490
Cosmos 2499 01 Sep 17:27:34 17:35:09 35° 274° (W) 17:42:06 435.465 / 435.565
KKS-1 01 Sep 17:30:05 17:33:37 22° 292° (WNW) 17:37:02 437.445
HORYU 2 01 Sep 17:39:21 17:42:25 17° 268° (W) 17:45:20 437.375
MOZHAYETS 4 01 Sep 17:47:25 17:52:00 84° 102° (ESE) 17:56:33
AIST 2 01 Sep 17:57:31 18:00:43 20° 314° (NW) 18:03:50 435.215
CUTE-I 01 Sep 18:07:28 18:12:11 35° 69° (ENE) 18:17:00 437.470
CUBESAT XI-V 01 Sep 18:09:08 18:10:16 11° 88° (E) 18:11:44 437.345
O/OREOS (USA 219) 01 Sep 18:51:18 18:55:15 31° 104° (ESE) 18:59:18 437.305
RS-15 01 Sep 18:58:28 19:08:20 35° 323° (NW) 19:18:25 29.354- 29.394
Cubesat XI-IV 01 Sep 19:02:03 19:07:21 73° 257° (WSW) 19:12:42 437.490
HO-68 01 Sep 19:23:10 19:27:35 18° 58° (ENE) 19:32:20 435.675
Cosmos 2491 01 Sep 19:26:52 19:33:29 24° 66° (ENE) 19:40:25 435.465 / 435.565
CUBESAT XI-V 01 Sep 19:43:38 19:48:15 67° 285° (WNW) 19:52:52 437.345
PRISM 01 Sep 19:46:51 19:49:45 19° 94° (E) 19:52:46 437.425
CUTE-I 01 Sep 19:47:48 19:52:20 27° 265° (W) 19:56:47 437.470
CANX-2 01 Sep 19:48:42 19:50:20 12° 66° (ENE) 19:52:11 2200.000
STRAND 1 01 Sep 19:55:20 20:00:05 38° 98° (E) 20:04:51 437.568
AIST 1 01 Sep 20:05:27 20:09:46 69° 265° (W) 20:14:05
SEEDS 01 Sep 20:07:53 20:10:02 14° 67° (ENE) 20:12:23 437.485
BRITE-PL 01 Sep 20:11:01 20:15:21 88° 78° (ENE) 20:20:04 437.365/2234.400
COMPASS 1 01 Sep 20:27:28 20:30:16 18° 69° (ENE) 20:33:12 437.405
O/OREOS (USA 219) 01 Sep 20:30:59 20:34:43 24° 301° (WNW) 20:38:26 437.305
GOMX 1 01 Sep 20:34:51 20:39:21 90° 15° (NNE) 20:44:13 467.674
AAUSAT CUBESAT 2 01 Sep 20:36:40 20:39:36 19° 69° (ENE) 20:42:38 437.432
DOVE 4 01 Sep 20:43:35 20:48:08 67° 75° (ENE) 20:53:01 437.250
ZACube-1 01 Sep 21:04:20 21:06:09 13° 65° (ENE) 21:08:13 437.345
CUBEBUG 2 01 Sep 21:06:39 21:10:14 23° 68° (ENE) 21:14:01 437.445
CUTE 1.7 + AOD 2 01 Sep 21:07:19 21:11:36 85° 77° (ENE) 21:15:54 437.475
HO-68 01 Sep 21:07:21 21:14:32 85° 255° (WSW) 21:21:47 435.675
FUNcube-1 01 Sep 21:08:54 21:11:02 14° 65° (ENE) 21:13:25 145.935
UWE-3 01 Sep 21:11:50 21:15:08 20° 68° (ENE) 21:18:37 435.000/436.395/437.385
RS-15 01 Sep 21:18:37 21:25:45 18° 357° (N) 21:33:01 29.354- 29.394
CANX-2 01 Sep 21:21:35 21:25:49 58° 260° (W) 21:30:03 2200.000
PRISM 01 Sep 21:21:36 21:25:15 31° 289° (WNW) 21:28:52 437.425
CINEMA 3 01 Sep 21:21:43 21:26:22 73° 75° (ENE) 21:31:17 145.822/145.860
Cosmos 2491 01 Sep 21:22:33 21:31:15 70° 266° (W) 21:39:56 435.465 / 435.565
YUBILEINY 01 Sep 21:27:16 21:35:50 62° 92° (E) 21:44:32 435.215
STRAND 1 01 Sep 21:35:00 21:39:06 24° 293° (WNW) 21:43:04 437.568
SEEDS 01 Sep 21:41:21 21:45:28 48° 261° (W) 21:49:35 437.485
HUMSAT D 01 Sep 21:41:28 21:42:43 11° 65° (ENE) 21:44:12 437.325/437.525
Oscar 11 01 Sep 21:52:21 21:56:38 62° 75° (ENE) 22:00:57 145.826/435.025
COMPASS 1 01 Sep 22:01:48 22:05:42 35° 263° (W) 22:09:34 437.405
AAUSAT CUBESAT 2 01 Sep 22:11:10 22:14:59 33° 264° (W) 22:18:46 437.432
AISAT 01 Sep 22:16:24 22:17:10 11° 64° (ENE) 22:18:12 437.250
DOVE 4 01 Sep 22:24:55 22:26:34 11° 274° (W) 22:27:57 437.250
DELFI C3 01 Sep 22:27:16 22:31:19 80° 258° (WSW) 22:35:23 145.870
ZACube-1 01 Sep 22:37:29 22:41:59 65° 260° (W) 22:46:35 437.345
VELOX 1 01 Sep 22:41:46 22:44:51 20° 68° (ENE) 22:48:05 145.980
FUNcube-1 01 Sep 22:42:25 22:46:53 59° 260° (W) 22:51:26 145.935
CUBEBUG 2 01 Sep 22:42:29 22:46:44 34° 264° (W) 22:51:02 437.445
UWE-3 01 Sep 22:47:05 22:51:24 39° 263° (W) 22:55:46 435.000/436.395/437.385
TIGRISAT 01 Sep 22:57:37 23:00:42 18° 91° (E) 23:03:52 435.000
50 SAT 01 Sep 22:58:48 23:02:19 32° 72° (ENE) 23:05:54 437.505
HO-68 01 Sep 23:00:00 23:03:26 13° 274° (W) 23:06:19 435.675
CINEMA 3 01 Sep 23:03:02 23:04:16 11° 274° (W) 23:05:09 145.822/145.860
Cosmos 2504 01 Sep 23:09:46 23:16:59 38° 87° (E) 23:24:42 435.465 / 435.565
HUMSAT D 01 Sep 23:13:40 23:17:57 65° 260° (W) 23:22:17 437.325/437.525
ANTELSAT 01 Sep 23:14:33 23:18:29 29° 95° (E) 23:22:23 437.575/2403.000
AUBIESAT-1 01 Sep 23:16:31 23:18:05 12° 94° (E) 23:19:47 437.475
M-CUBED/EXP-1 PRIME 01 Sep 23:22:04 23:24:45 18° 96° (E) 23:27:23 437.505
DX 1 01 Sep 23:22:12 23:26:32 89° 77° (ENE) 23:30:54 434.975-435.025
Cosmos 2491 01 Sep 23:24:13 23:26:44 11° 283° (WNW) 23:28:27 435.465 / 435.565
YUBILEINY 01 Sep 23:26:00 23:33:22 28° 293° (WNW) 23:40:30 435.215
POLYITAN 1 01 Sep 23:26:45 23:28:44 13° 90° (E) 23:30:57 437.675
DUCHIFAT 1 01 Sep 23:28:27 23:30:17 13° 90° (E) 23:32:22 145.980
POPSAT HIP 1 01 Sep 23:28:48 23:30:54 14° 90° (E) 23:33:12 437.405
Oscar 11 01 Sep 23:32:11 23:33:18 11° 272° (W) 23:34:06 145.826/435.025
UKube-1 01 Sep 23:33:03 23:37:22 76° 258° (WSW) 23:41:41 .
CUSAT 1 01 Sep 23:34:10 23:36:18 14° 82° (E) 23:38:56 437.405
RS-15 01 Sep 23:34:13 23:43:45 28° 31° (NNE) 23:53:51 29.354- 29.394
SPROUT 01 Sep 23:39:07 23:41:26 15° 67° (ENE) 23:43:56 437.525
ESTCUBE 1 01 Sep 23:39:42 23:44:06 62° 75° (ENE) 23:48:33 437.505/2401.250
BEESAT 3 01 Sep 23:43:03 23:46:39 31° 51° (NE) 23:50:13 437.485
QB50P2 01 Sep 23:45:04 23:48:24 22° 94° (E) 23:51:48 145.880/145.840
NANOSAT C BR1 01 Sep 23:45:15 23:48:28 21° 93° (E) 23:51:47 145.865
CUBEBUG 1 01 Sep 23:45:59 23:50:13 59° 75° (ENE) 23:54:29 437.445
AISAT 01 Sep 23:48:48 23:53:11 73° 258° (WSW) 23:57:38 437.250
BEESAT 2 01 Sep 23:56:47 00:00:27 32° 52° (NE) 00:04:05 435.950
QB50P1 01 Sep 23:58:58 00:02:46 31° 96° (E) 00:06:36 145.935-145.965
SO-50 02 Sep 00:02:50 00:03:59 11° 107° (ESE) 00:05:28 436.795
UNISAT 6 02 Sep 00:05:02 00:09:37 76° 284° (WNW) 00:14:02 437.425
DANDE 02 Sep 00:09:59 00:12:24 18° 85° (E) 00:15:25 436.750
VELOX 1 02 Sep 00:17:07 00:21:11 36° 263° (W) 00:25:15 145.980
TIGRISAT 02 Sep 00:33:24 00:37:39 38° 289° (WNW) 00:41:45 435.000
50 SAT 02 Sep 00:34:17 00:36:57 17° 268° (W) 00:39:29 437.505
TISAT 1 02 Sep 00:36:49 00:40:38 35° 72° (ENE) 00:44:32 437.305
AIST 2 02 Sep 00:41:12 00:44:23 21° 47° (NE) 00:47:35 435.215
AUBIESAT-1 02 Sep 00:49:31 00:53:09 38° 293° (WNW) 00:56:30 437.475
SWISSCUBE 02 Sep 00:51:16 00:52:09 11° 62° (ENE) 00:53:19 437.505
ANTELSAT 02 Sep 00:51:26 00:55:09 25° 291° (WNW) 00:58:43 437.575/2403.000
M-CUBED/EXP-1 PRIME 02 Sep 00:56:15 00:59:39 27° 295° (WNW) 01:02:46 437.505
POLYITAN 1 02 Sep 01:00:48 01:04:58 48° 286° (WNW) 01:09:06 437.675
Cosmos 2504 02 Sep 01:01:22 01:09:07 44° 286° (WNW) 01:17:09 435.465 / 435.565
DUCHIFAT 1 02 Sep 01:02:17 01:06:26 49° 286° (WNW) 01:10:33 145.980
POPSAT HIP 1 02 Sep 01:02:56 01:07:05 47° 287° (WNW) 01:11:11 437.405
BUGSAT 1 02 Sep 01:04:30 01:08:47 77° 285° (WNW) 01:13:02 437.445
SPROUT 02 Sep 01:13:00 01:17:08 47° 261° (W) 01:21:19 437.525
CUSAT 1 02 Sep 01:14:20 01:18:05 40° 288° (WNW) 01:23:00 437.405
ESTCUBE 1 02 Sep 01:20:04 01:21:28 11° 271° (W) 01:22:36 437.505/2401.250
QB50P2 02 Sep 01:20:33 01:24:19 29° 289° (WNW) 01:27:59 145.880/145.840
NANOSAT C BR1 02 Sep 01:20:33 01:24:21 30° 289° (WNW) 01:28:04 145.865
BEESAT 3 02 Sep 01:21:18 01:24:25 21° 248° (WSW) 01:27:24 437.485
CUBEBUG 1 02 Sep 01:25:44 01:27:02 11° 271° (W) 01:28:05 437.445
ITUPSAT 1 02 Sep 01:27:21 01:31:00 23° 68° (ENE) 01:34:47 437.325
QB50P1 02 Sep 01:35:09 01:38:28 21° 291° (WNW) 01:41:41 145.935-145.965
BEESAT 2 02 Sep 01:35:13 01:38:18 21° 248° (WSW) 01:41:15 435.950
SO-50 02 Sep 01:39:08 01:43:54 79° 301° (WNW) 01:48:51 436.795
RS-15 02 Sep 01:46:32 01:58:28 81° 58° (ENE) 02:10:47 29.354- 29.394
PCSat 02 Sep 01:47:00 01:52:06 46° 113° (ESE) 01:57:17 145.827
DANDE 02 Sep 01:52:14 01:55:16 24° 293° (WNW) 01:58:59 436.750
BEESAT 02 Sep 01:58:43 02:03:17 48° 73° (ENE) 02:07:53 436.000
TISAT 1 02 Sep 02:13:39 02:16:33 17° 268° (W) 02:19:19 437.305
GONETS M04 02 Sep 02:16:39 02:23:31 28° 84° (E) 02:30:41
AIST 2 02 Sep 02:19:13 02:23:05 37° 245° (WSW) 02:26:51 435.215
SWISSCUBE 02 Sep 02:24:38 02:29:25 82° 259° (W) 02:34:12 437.505
VERMONT LUNAR 02 Sep 02:41:09 02:43:04 16° 149° (SSE) 02:45:02 437.305
Oscar 19 02 Sep 02:49:39 02:54:52 80° 102° (ESE) 03:00:04 437.125/150
KKS-1 02 Sep 02:50:16 02:53:56 26° 69° (ENE) 02:57:41 437.445
ITUPSAT 1 02 Sep 03:04:19 03:08:43 35° 263° (W) 03:13:05 437.325
SO-50 02 Sep 03:22:59 03:25:21 13° 322° (NW) 03:27:33 436.795
PCSat 02 Sep 03:31:15 03:35:45 26° 310° (NW) 03:40:12 145.827
BEESAT 02 Sep 03:38:22 03:41:26 16° 269° (W) 03:44:18 436.000
Gurwin Techsat 1B 02 Sep 03:40:55 03:46:14 75° 102° (ESE) 03:51:33 435.225
JAS-2 02 Sep 03:44:37 03:50:58 40° 94° (E) 03:56:40 435.910
ITAMSAT 1 02 Sep 03:51:19 03:56:30 76° 102° (ESE) 04:01:43 435.822/435.867
RS-15 02 Sep 04:00:27 04:10:01 27° 255° (WSW) 04:19:12 29.354- 29.394
STARS 02 Sep 04:03:49 04:08:14 82° 257° (WSW) 04:12:42 437.465
Cosmos 2499 02 Sep 04:07:55 04:15:31 40° 87° (E) 04:23:35 435.465 / 435.565
GONETS M04 02 Sep 04:11:22 04:19:53 58° 282° (WNW) 04:28:27
VERMONT LUNAR 02 Sep 04:16:12 04:19:11 72° 163° (SSE) 04:22:10 437.305
KKS-1 02 Sep 04:26:41 04:30:29 27° 265° (W) 04:34:17 437.445
Oscar 19 02 Sep 04:31:17 04:33:38 13° 298° (WNW) 04:35:41 437.125/150
MOZHAYETS 4 02 Sep 04:47:45 04:52:20 67° 75° (ENE) 04:56:56
O/OREOS (USA 219) 02 Sep 05:02:01 05:06:29 49° 65° (ENE) 05:10:56 437.305
AO-7 02 Sep 05:07:05 05:15:15 60° 103° (ESE) 05:23:25 29.400- 29.500
CUBESAT XI-V 02 Sep 05:13:04 05:13:12 10° 64° (ENE) 05:13:38 437.345
Gurwin Techsat 1B 02 Sep 05:22:52 05:25:40 14° 297° (WNW) 05:28:11 435.225
PHONESAT 2.4 02 Sep 05:24:54 05:27:54 29° 153° (SSE) 05:30:55 2401.200-2431.200
JAS-2 02 Sep 05:29:48 05:35:55 33° 295° (WNW) 05:41:17 435.910
HORYU 2 02 Sep 05:29:58 05:34:27 81° 283° (WNW) 05:38:52 437.375
ITAMSAT 1 02 Sep 05:32:53 05:35:27 13° 298° (WNW) 05:37:46 435.822/435.867
VERMONT LUNAR 02 Sep 05:52:43 05:55:40 58° 360° (N) 05:58:37 437.305
Cosmos 2499 02 Sep 06:00:35 06:08:38 44° 287° (WNW) 06:16:57 435.465 / 435.565
CUTE-I 02 Sep 06:26:59 06:29:48 15° 90° (E) 06:32:54 437.470
MOZHAYETS 4 02 Sep 06:28:50 06:30:06 11° 272° (W) 06:31:03
PRISM 02 Sep 06:36:59 06:38:41 13° 66° (ENE) 06:40:33 437.425
O/OREOS (USA 219) 02 Sep 06:42:51 06:45:32 15° 260° (W) 06:48:00 437.305
CUBESAT XI-V 02 Sep 06:45:28 06:50:04 81° 258° (WSW) 06:54:41 437.345
AO-7 02 Sep 07:00:37 07:07:39 31° 300° (WNW) 07:14:28 29.400- 29.500
PHONESAT 2.4 02 Sep 07:02:11 07:05:35 83° 344° (NNW) 07:09:01 2401.200-2431.200
STRAND 1 02 Sep 07:09:54 07:14:47 49° 72° (ENE) 07:19:42 437.568
Cubesat XI-IV 02 Sep 07:20:40 07:25:50 50° 99° (E) 07:31:00 437.490
VERMONT LUNAR 02 Sep 07:29:11 07:32:10 79° 196° (SSW) 07:35:08 437.305
YUBILEINY 02 Sep 07:39:40 07:46:54 29° 68° (ENE) 07:54:20 435.215
CUTE-I 02 Sep 08:05:09 08:10:25 63° 287° (WNW) 08:15:40 437.470
PRISM 02 Sep 08:09:44 08:13:43 50° 260° (W) 08:17:43 437.425
BRITE-PL 02 Sep 08:16:21 08:21:26 36° 96° (E) 08:26:41 437.365/2234.400
Cosmos 2491 02 Sep 08:27:05 08:33:59 28° 85° (E) 08:41:08 435.465 / 435.565
AIST 1 02 Sep 08:33:17 08:37:30 74° 97° (E) 08:41:46
SO-50 02 Sep 08:33:50 08:35:19 11° 36° (NE) 08:36:59 436.795
GOMX 1 02 Sep 08:37:45 08:42:40 34° 95° (E) 08:47:39 467.674
HO-68 02 Sep 08:38:01 08:42:45 19° 90° (E) 08:47:49 435.675
PHONESAT 2.4 02 Sep 08:40:13 08:43:37 65° 5° (N) 08:47:00 2401.200-2431.200
DOVE 4 02 Sep 08:44:24 08:48:33 24° 92° (E) 08:52:46 437.250
ISS 02 Sep 08:45:18 08:48:31 66° 138° (SE) 08:51:46 145.825
STRAND 1 02 Sep 08:50:46 08:54:19 18° 269° (W) 08:57:40 437.568
CUTE 1.7 + AOD 2 02 Sep 08:55:05 08:57:35 16° 91° (E) 09:00:15 437.475
Cubesat XI-IV 02 Sep 09:01:43 09:05:36 20° 295° (WNW) 09:09:20 437.490
Cosmos 2504 02 Sep 09:02:07 09:02:58 10° 54° (NE) 09:04:31 435.465 / 435.565
VERMONT LUNAR 02 Sep 09:06:11 09:08:18 18° 210° (SSW) 09:10:22 437.305
CANX-2 02 Sep 09:08:34 09:12:03 25° 94° (E) 09:15:35 2200.000
CINEMA 3 02 Sep 09:18:53 09:22:33 21° 91° (E) 09:26:17 145.822/145.860
SEEDS 02 Sep 09:27:05 09:30:43 29° 95° (E) 09:34:22 437.485
YUBILEINY 02 Sep 09:35:43 09:44:22 61° 268° (W) 09:52:55 435.215
Oscar 11 02 Sep 09:43:00 09:44:36 12° 89° (E) 09:46:27 145.826/435.025
COMPASS 1 02 Sep 09:46:09 09:50:00 37° 97° (E) 09:53:52 437.405
AAUSAT CUBESAT 2 02 Sep 09:54:54 09:58:47 39° 97° (E) 10:02:40 437.432
BRITE-PL 02 Sep 09:54:59 09:59:50 31° 290° (WNW) 10:04:42 437.365/2234.400
TIGRISAT 02 Sep 09:55:33 09:58:18 16° 66° (ENE) 10:01:13 435.000
AUBIESAT-1 02 Sep 10:01:05 10:04:28 20° 63° (ENE) 10:07:56 437.475
M-CUBED/EXP-1 PRIME 02 Sep 10:07:20 10:11:19 27° 65° (ENE) 10:15:21 437.505
CUSAT 1 02 Sep 10:08:05 10:14:05 24° 66° (ENE) 10:20:33 437.405
DELFI C3 02 Sep 10:08:50 10:10:58 14° 91° (E) 10:13:14 145.870
SO-50 02 Sep 10:11:59 10:16:55 65° 56° (NE) 10:21:42 436.795
ANTELSAT 02 Sep 10:12:14 10:15:57 24° 69° (ENE) 10:19:47 437.575/2403.000
GOMX 1 02 Sep 10:15:54 10:20:41 31° 290° (WNW) 10:25:25 467.674
PHONESAT 2.4 02 Sep 10:18:09 10:21:30 54° 200° (SSW) 10:24:49 2401.200-2431.200
DOVE 4 02 Sep 10:21:27 10:26:27 41° 288° (WNW) 10:31:20 437.250
Cosmos 2491 02 Sep 10:21:49 10:30:22 58° 282° (WNW) 10:38:55 435.465 / 435.565
ISS 02 Sep 10:22:49 10:25:13 19° 336° (NNW) 10:27:36 145.825
HO-68 02 Sep 10:24:02 10:31:14 73° 288° (WNW) 10:38:23 435.675
ZACube-1 02 Sep 10:28:02 10:31:47 26° 94° (E) 10:35:31 437.345
CUTE 1.7 + AOD 2 02 Sep 10:29:46 10:33:42 39° 287° (WNW) 10:37:36 437.475
FUNcube-1 02 Sep 10:32:35 10:36:26 29° 95° (E) 10:40:15 145.935
CUBEBUG 2 02 Sep 10:34:34 10:39:10 57° 99° (E) 10:43:38 437.445
PCSat 02 Sep 10:36:14 10:40:55 29° 51° (NE) 10:45:39 145.827
NANOSAT C BR1 02 Sep 10:37:33 10:39:45 14° 66° (ENE) 10:42:09 145.865
QB50P2 02 Sep 10:37:40 10:40:04 15° 67° (ENE) 10:42:39 145.880/145.840
UWE-3 02 Sep 10:38:10 10:42:36 47° 98° (E) 10:46:53 435.000/436.395/437.385
CANX-2 02 Sep 10:44:27 10:47:55 24° 290° (WNW) 10:51:16 2200.000
DANDE 02 Sep 10:47:07 10:53:50 32° 70° (ENE) 11:01:19 436.750
Cosmos 2504 02 Sep 10:49:10 10:57:31 61° 78° (ENE) 11:05:21 435.465 / 435.565
QB50P1 02 Sep 10:50:56 10:54:03 21° 69° (ENE) 10:57:17 145.935-145.965
CINEMA 3 02 Sep 10:55:15 10:59:56 40° 288° (WNW) 11:04:26 145.822/145.860
HUMSAT D 02 Sep 10:59:40 11:02:55 22° 93° (E) 11:06:11 437.325/437.525
UNISAT 6 02 Sep 11:02:01 11:06:42 81° 76° (ENE) 11:11:26 437.425
SEEDS 02 Sep 11:03:08 11:06:22 21° 291° (WNW) 11:09:28 437.485
DX 1 02 Sep 11:12:53 11:15:40 17° 92° (E) 11:18:37 434.975-435.025
Oscar 11 02 Sep 11:16:58 11:21:11 53° 286° (WNW) 11:25:21 145.826/435.025
UKube-1 02 Sep 11:22:36 11:25:40 19° 93° (E) 11:28:52 .
COMPASS 1 02 Sep 11:22:40 11:25:24 17° 292° (WNW) 11:27:59 437.405
TIGRISAT 02 Sep 11:30:03 11:34:38 53° 261° (W) 11:39:15 435.000
AAUSAT CUBESAT 2 02 Sep 11:31:31 11:34:05 16° 292° (WNW) 11:36:30 437.432
AUBIESAT-1 02 Sep 11:34:20 11:38:53 44° 257° (WSW) 11:43:21 437.475
ESTCUBE 1 02 Sep 11:35:05 11:37:27 14° 90° (E) 11:40:02 437.505/2401.250
CUBEBUG 1 02 Sep 11:37:59 11:39:40 12° 89° (E) 11:41:36 437.445
AISAT 02 Sep 11:41:12 11:44:45 23° 94° (E) 11:48:24 437.250
M-CUBED/EXP-1 PRIME 02 Sep 11:41:37 11:45:57 33° 259° (W) 11:50:12 437.505
DELFI C3 02 Sep 11:42:31 11:46:14 38° 287° (WNW) 11:49:54 145.870
ANTELSAT 02 Sep 11:48:20 11:52:35 33° 264° (W) 11:56:48 437.575/2403.000
CUSAT 1 02 Sep 11:49:24 11:57:23 77° 263° (W) 12:05:32 437.405
POLYITAN 1 02 Sep 11:51:56 11:56:12 78° 258° (WSW) 12:00:31 437.675
DUCHIFAT 1 02 Sep 11:52:46 11:56:59 82° 258° (WSW) 12:01:16 145.980
BUGSAT 1 02 Sep 11:53:02 11:57:02 60° 75° (ENE) 12:01:06 437.445
POPSAT HIP 1 02 Sep 11:53:52 11:58:07 76° 258° (WSW) 12:02:25 437.405
SO-50 02 Sep 11:54:20 11:56:56 14° 251° (WSW) 11:59:18 436.795
PHONESAT 2.4 02 Sep 11:57:26 11:58:56 12° 214° (SW) 12:00:21 2401.200-2431.200
ZACube-1 02 Sep 12:04:19 12:08:05 26° 290° (WNW) 12:11:40 437.345
VELOX 1 02 Sep 12:08:21 12:12:38 44° 99° (E) 12:16:56 145.980
50 SAT 02 Sep 12:08:58 12:12:47 57° 100° (E) 12:16:32 437.505
FUNcube-1 02 Sep 12:09:01 12:12:38 24° 291° (WNW) 12:16:05 145.935
NANOSAT C BR1 02 Sep 12:11:07 12:15:13 47° 261° (W) 12:19:21 145.865
QB50P2 02 Sep 12:11:31 12:15:37 45° 261° (W) 12:19:44 145.880/145.840
CUBEBUG 2 02 Sep 12:12:49 12:15:23 14° 295° (WNW) 12:17:43 437.445
HO-68 02 Sep 12:14:28 12:17:55 14° 305° (NW) 12:20:57 435.675
UWE-3 02 Sep 12:15:50 12:18:44 16° 294° (WNW) 12:21:25 435.000/436.395/437.385
PCSat 02 Sep 12:19:25 12:24:27 38° 249° (WSW) 12:29:23 145.827
QB50P1 02 Sep 12:25:55 12:29:44 32° 264° (W) 12:33:33 145.935-145.965
Oscar 19 02 Sep 12:29:38 12:31:33 12° 62° (ENE) 12:33:45 437.125/150
GONETS M04 02 Sep 12:29:44 12:32:38 12° 56° (NE) 12:36:15
